Weather History for YWLM - January, 2013

Change the Weather History Date:

Friday, January 25, 2013

  Actual Average Record
Temperature  
Mean Temperature 75 °F -  
Max Temperature 86 °F - - ()
Min Temperature 64 °F - - ()
Cooling Degree Days 10    
Growing Degree Days 25 (Base 50)    
Moisture  
Dew Point 69 °F    
Average Humidity 79    
Maximum Humidity 100    
Minimum Humidity 47    
Precipitation  
Precipitation 0.00 in - - ()
Sea Level Pressure  
Sea Level Pressure 29.87 in    
Wind  
Wind Speed 6 mph ()    
Max Wind Speed 20 mph    
Max Gust Speed -    
Visibility 5.8 miles    
Events Fog    
T = Trace of Precipitation, MM = Missing Value Source: Averaged Metar Reports

Daily Weather History Graph

Daily Weather History Graph

Search for Another Location

Airport or City:

Trip Planner

Search our weather history database for the weather conditions in past years. The results will help you decide how hot, cold, wet, or windy it might be!

Date:

Astronomy

Jan. 25, 2013 Rise Set
Actual Time 6:09 AM AEDT 8:00 PM AEDT
Civil Twilight 5:42 AM AEDT 8:27 PM AEDT
Nautical Twilight 5:09 AM AEDT 9:00 PM AEDT
Astronomical Twilight 4:34 AM AEDT 9:34 PM AEDT
Moon 6:24 PM AEDT (1/25) 4:11 AM AEDT (1/25)
Length of Visible Light 14h 45m
Length of Day
13h 50m
Waxing Gibbous, 96% of the Moon is Illuminated
Jan 25
Waxing Gibbous
Jan 27
Full
Feb 4
Last Quarter
Feb 10
New
Feb 18
First Quarter

Hourly Weather History & Observations

Time (AEDT) Temp. Heat Index Dew Point Humidity Pressure Visibility Wind Dir Wind Speed Gust Speed Precip Events Conditions
12:00 AM 70 °F - 68 °F 93% 29.95 in - East 5.8 mph - -  
12:00 AM 69.8 °F - 68.0 °F 94% 29.95 in 6.2 mi East 5.8 mph - N/A   Unknown
12:30 AM 69.8 °F - 68.0 °F 94% 29.92 in 6.2 mi ESE 4.6 mph - N/A   Unknown
1:00 AM 68.0 °F - 66.2 °F 94% 29.92 in - Calm Calm - N/A   Unknown
1:30 AM 68.0 °F - 66.2 °F 94% 29.92 in - Calm Calm - N/A   Unknown
2:00 AM 69 °F - 68 °F 95% 29.92 in - East 4.6 mph - -  
2:00 AM 69.8 °F - 68.0 °F 94% 29.92 in - East 4.6 mph - N/A   Scattered Clouds
2:30 AM 68.0 °F - 66.2 °F 94% 29.92 in - Calm Calm - N/A   Scattered Clouds
3:00 AM 67 °F - 67 °F 98% 29.91 in - Calm Calm - -  
3:00 AM 68.0 °F - 66.2 °F 94% 29.89 in - Calm Calm - N/A   Unknown
3:30 AM 66.2 °F - 64.4 °F 94% 29.89 in - Calm Calm - N/A   Unknown
3:54 AM 66.2 °F - 64.4 °F 94% 29.89 in 3.7 mi Calm Calm - N/A   Scattered Clouds
4:00 AM 66.2 °F - 64.4 °F 94% 29.89 in - Calm Calm - N/A   Unknown
4:13 AM 66.2 °F - 66.2 °F 100% 29.89 in 6.2 mi Calm Calm - N/A   Scattered Clouds
4:30 AM 66.2 °F - 64.4 °F 94% 29.89 in 6.2 mi ESE 4.6 mph - N/A   Unknown
5:00 AM 66 °F - 65 °F 94% 29.89 in - Calm Calm - -  
5:00 AM 66.2 °F - 64.4 °F 94% 29.89 in - Calm Calm - N/A   Unknown
5:25 AM 66.2 °F - 64.4 °F 94% 29.89 in - ESE 2.3 mph - N/A   Mostly Cloudy
5:30 AM 66.2 °F - 64.4 °F 94% 29.89 in - ESE 1.2 mph - N/A   Mostly Cloudy
6:00 AM 65 °F - 65 °F 98% 29.89 in - Calm Calm - -  
6:00 AM 66.2 °F - 64.4 °F 94% 29.89 in 0.3 mi Calm Calm - N/A Fog Fog
6:30 AM 64.4 °F - 64.4 °F 100% 29.89 in 3.1 mi Calm Calm - N/A Fog Fog
7:00 AM 66.2 °F - 66.2 °F 100% 29.89 in 3.1 mi North 1.2 mph - N/A Fog Fog
7:24 AM 69.8 °F - 68.0 °F 94% 29.89 in 5.0 mi Calm Calm - N/A Fog Fog
7:30 AM 69.8 °F - 69.8 °F 100% 29.89 in - Calm Calm - N/A   Mostly Cloudy
8:00 AM 73 °F - 71 °F 92% 29.91 in - SSE 4.6 mph - -  
8:00 AM 73.4 °F - 71.6 °F 94% 29.89 in 6.2 mi SSE 4.6 mph - N/A   Scattered Clouds
8:30 AM 75.2 °F - 71.6 °F 89% 29.89 in 6.2 mi East 5.8 mph - N/A   Partly Cloudy
9:00 AM 77 °F - 71 °F 75% 29.91 in - NE 6.9 mph - -  
9:00 AM 77.0 °F - 69.8 °F 78% 29.89 in - NE 6.9 mph - N/A   Scattered Clouds
9:30 AM 78.8 °F - 69.8 °F 74% 29.89 in 6.2 mi NE 9.2 mph - N/A   Mostly Cloudy
10:00 AM 78.8 °F - 71.6 °F 78% 29.89 in 6.2 mi ESE 8.1 mph - N/A   Mostly Cloudy
10:30 AM 80.6 °F 83.9 °F 69.8 °F 70% 29.89 in 6.2 mi ESE 9.2 mph - N/A   Mostly Cloudy
11:00 AM 78 °F - 71 °F 73% 29.89 in - SSE 10.4 mph - -  
11:00 AM 78.8 °F - 71.6 °F 78% 29.89 in 6.2 mi SSE 10.4 mph - N/A   Scattered Clouds
11:30 AM 80.6 °F 84.6 °F 71.6 °F 74% 29.89 in 6.2 mi ESE 11.5 mph - N/A   Scattered Clouds
12:00 PM 80 °F - 71 °F 66% 29.88 in - SE 13.8 mph - -   Overcast
12:00 PM 80.6 °F 84.6 °F 71.6 °F 74% 29.86 in 6.2 mi SE 13.8 mph - N/A   Scattered Clouds
12:30 PM 82.4 °F 87.2 °F 71.6 °F 70% 29.86 in 6.2 mi SE 15.0 mph - N/A   Scattered Clouds
1:00 PM 82.4 °F 87.2 °F 71.6 °F 70% 29.86 in 6.2 mi ESE 16.1 mph - N/A   Scattered Clouds
1:30 PM 84.2 °F 88.4 °F 69.8 °F 62% 29.83 in 6.2 mi SE 18.4 mph - N/A   Scattered Clouds
2:00 PM 83 °F - 70 °F 57% 29.84 in - East 15.0 mph - -  
2:00 PM 82.4 °F 86.3 °F 69.8 °F 66% 29.83 in 6.2 mi East 15.0 mph - N/A   Scattered Clouds
2:30 PM 84.2 °F 87.3 °F 68.0 °F 58% 29.83 in 6.2 mi East 17.3 mph - N/A   Scattered Clouds
3:00 PM 85 °F - 68 °F 47% 29.83 in - East 15.0 mph - -  
3:00 PM 84.2 °F 87.3 °F 68.0 °F 58% 29.83 in 6.2 mi East 15.0 mph - N/A   Scattered Clouds
3:30 PM 86.0 °F 89.4 °F 68.0 °F 55% 29.80 in 6.2 mi East 17.3 mph - N/A   Partly Cloudy
4:00 PM 84.2 °F 87.3 °F 68.0 °F 58% 29.80 in 6.2 mi ENE 15.0 mph - N/A   Partly Cloudy
4:30 PM 86.0 °F 89.4 °F 68.0 °F 55% 29.80 in 6.2 mi East 18.4 mph - N/A   Scattered Clouds
5:00 PM 85 °F - 69 °F 49% 29.81 in - East 19.6 mph - -  
5:00 PM 86.0 °F 89.4 °F 68.0 °F 55% 29.80 in 6.2 mi East 19.6 mph - N/A   Unknown
5:30 PM 84.2 °F 87.3 °F 68.0 °F 58% 29.80 in 6.2 mi East 17.3 mph - N/A   Unknown
6:00 PM 83 °F - 69 °F 53% 29.80 in - ENE 16.1 mph - -  
6:00 PM 82.4 °F 85.4 °F 68.0 °F 62% 29.80 in 6.2 mi ENE 16.1 mph - N/A   Unknown
6:30 PM 82.4 °F 86.3 °F 69.8 °F 66% 29.80 in 6.2 mi ENE 17.3 mph - N/A   Unknown
7:00 PM 80.6 °F 83.9 °F 69.8 °F 70% 29.80 in 6.2 mi ENE 13.8 mph - N/A   Unknown
7:30 PM 80.6 °F 83.9 °F 69.8 °F 70% 29.83 in 6.2 mi ENE 12.7 mph - N/A   Unknown
8:00 PM 79 °F - 70 °F 68% 29.85 in - ENE 10.4 mph - -  
8:00 PM 78.8 °F - 69.8 °F 74% 29.83 in 6.2 mi ENE 10.4 mph - N/A   Unknown
8:30 PM 78.8 °F - 69.8 °F 74% 29.83 in 6.2 mi NE 10.4 mph - N/A   Unknown
9:00 PM 78 °F - 70 °F 71% 29.86 in - ENE 9.2 mph - -  
9:00 PM 77.0 °F - 69.8 °F 78% 29.83 in 6.2 mi ENE 9.2 mph - N/A   Unknown
9:30 PM 77.0 °F - 71.6 °F 83% 29.86 in 6.2 mi ENE 9.2 mph - N/A   Unknown
10:00 PM 77.0 °F - 71.6 °F 83% 29.86 in 6.2 mi ENE 10.4 mph - N/A   Unknown
10:30 PM 77.0 °F - 71.6 °F 83% 29.86 in 6.2 mi NE 11.5 mph - N/A   Unknown
11:00 PM 77 °F - 70 °F 74% 29.87 in - NE 9.2 mph - -  
11:00 PM 77.0 °F - 69.8 °F 78% 29.86 in 6.2 mi NE 9.2 mph - N/A   Unknown
11:30 PM 77.0 °F - 69.8 °F 78% 29.86 in 6.2 mi ENE 8.1 mph - N/A   Unknown